Location: Dunedin
(45.8670°S, 170.5000°E)
Time: 17:41:20
(UTC+13:00)

Gbstr 26 Del rocket - Pass Details

Date: 24 January 2019
Orbit: 493 x 1264 km, 51.8° (Epoch: 20 February)

Event Time Altitude Azimuth Distance (km) Brightness Sun altitude
Rises 21:50:48 0° 263° (W) 2,994 7.8 -5.4°
Reaches altitude 10° 21:53:27 10° 254° (WSW) 1,975 7.1 -5.8°
Maximum altitude 21:57:32 36° 186° (S) 886 4.3 -6.4°
Drops below altitude 10° 22:01:11 10° 117° (ESE) 1,755 5.1 -6.9°
Sets 22:03:24 0° 108° (ESE) 2,612 5.9 -7.2°
